Theta_e
343 344 343 339 335 338 340 343 343 344 342 346 344 344 344 341 335 329 327 321 320 317
340 341 341 338 338 338 342 342 342 343 342 346 344 343 340 333 327 325 321 317 316 314
337 337 339 337 337 337 337 335 336 339 341 343 343 336 332 328 323 319 318 315 314 312
334 334 336 336 337 338 332 334 337 335 338 339 334 331 328 324 319 316 315 312 310 307
331 331 332 333 333 333 332 334 334 330 332 333 330 327 323 321 318 314 310 308 308 306
327 323 321 329 331 330 332 330 330 329 333 330 325 322 321 319 315 312 309 307 305 304
322 317 317 332 329 327 325 323 323 326 327 323 320 318 316 313 311 308 306 304 304 304
324 328 329 330 330 328 323 322 320 319 317 317 315 314 312 311 308 305 302 302 302 304
318 327 327 327 323 323 322 320 320 318 316 313 312 306 309 308 303 301 299 298 298 301
319 324 322 320 317 316 315 314 312 312 309 307 306 301 302 303 301 298 297 297 297 296
319 323 320 318 315 314 313 311 310 307 306 304 302 300 299 300 299 298 300 300 299 298
316 321 320 317 315 313 312 310 307 306 305 303 301 299 298 300 299 301 301 301 299 297
320 321 317 315 313 312 309 307 306 304 304 303 300 299 299 302 301 297 295 294 294 299
319 317 315 313 310 307 305 305 304 303 303 303 303 300 297 298 298 296 294 293 293 296
Wind_Speed
11 6 6 5 5 7 8 11 13 14 12 12 9 9 9 8 7 9 8 11 9 7
7 7 7 7 5 5 6 7 8 11 13 13 10 10 12 9 10 11 10 10 10 9
8 7 7 6 6 5 4 4 5 2 2 6 14 14 12 9 11 13 8 7 12 8
7 6 6 6 4 4 5 7 7 9 7 7 11 15 14 9 13 14 12 10 13 8
6 4 4 4 4 3 7 7 10 10 9 13 18 13 12 12 11 14 13 11 12 9
8 7 5 3 7 8 8 7 8 6 15 17 17 16 14 12 12 13 13 12 12 8
7 8 7 9 9 10 9 14 14 9 10 15 14 14 17 16 15 14 11 10 9 10
4 8 7 14 12 13 12 14 20 20 18 17 14 9 14 16 13 16 12 9 10 10
8 9 9 13 13 13 13 12 13 12 17 17 10 18 19 17 13 13 13 13 13 15
5 9 11 14 15 15 15 14 15 14 16 15 18 21 17 16 11 13 14 13 13 14
7 12 12 13 15 13 13 15 14 15 17 18 16 26 24 24 13 12 13 10 12 12
5 13 13 15 16 14 14 12 13 14 16 18 16 27 26 22 15 12 14 11 8 8
8 16 14 15 15 12 14 14 13 15 14 21 18 18 17 15 13 14 11 11 8 7
9 15 16 15 13 14 15 15 15 15 14 16 16 11 17 16 13 13 12 10 8 6
Wind_Direction
183 187 214 207 203 188 190 184 198 178 193 173 169 154 136 121 118 113 111 105 95 95
179 170 194 213 190 190 164 181 180 197 182 179 154 139 123 122 111 102 103 101 99 95
180 181 187 193 198 181 183 152 99 339 262 186 130 113 107 115 107 102 98 104 95 87
193 182 170 176 180 171 141 140 134 114 128 115 158 102 107 124 111 106 107 100 99 92
161 138 152 172 159 145 141 152 152 142 139 117 123 118 120 118 123 114 107 102 102 102
147 165 163 123 107 103 119 126 127 132 144 132 131 126 118 124 111 100 100 105 108 113
211 191 169 131 128 118 110 107 103 97 104 110 112 112 118 115 116 105 95 96 105 102
302 211 141 135 127 120 110 113 113 109 102 99 87 92 116 117 116 112 107 99 93 84
342 129 131 119 117 115 122 117 116 120 123 114 109 124 129 121 127 110 112 106 94 99
35 126 132 126 121 121 122 118 115 114 110 108 126 112 111 112 113 117 109 109 108 98
87 142 135 128 121 118 118 123 122 119 118 117 112 114 109 107 107 110 106 105 110 119
105 141 142 129 129 126 119 113 116 121 125 122 124 123 125 122 126 126 108 112 93 111
97 137 136 132 128 122 118 116 116 115 120 125 125 135 133 135 123 115 114 98 81 109
101 129 133 123 121 120 118 117 118 116 118 125 130 136 122 135 130 123 117 107 104 110